Погода в Кюсюре

Россия / Республика Саха (Якутия)     70°41′10″N   127°21′42″E
темп.,
°C
ветер,
м/с
пор.,
м/с
влажн.,
%
обл.,
%
осадки,
мм/ч
давл.,
гПа
погр.,
м
27 февраля, сб
сб2700:00−35ссз009594 0.0 103219
03:00−33ю119597 0.0 103119
06:00−31ююз1197100 0.1 103151
09:00−31ююз1199100 0.1 103033
12:00−30ю1294100 0.1 1030215
15:00−30ю1194100 0.1 1029196
18:00−34ю1110085 0.0 102919
21:00−36с0110052 0.0 102819
28 февраля, вс
вс2800:00−35ссв22972 0.0 102719
03:00−35ссв23941 0.0 102619
06:00−34ссв33910 0.0 102523
09:00−33ссв34888 0.0 102430
12:00−31ссв348958 0.0 102498
15:00−31св238958 0.0 102337
18:00−35св338817 0.0 102419
21:00−37св228835 0.0 102519
1 марта, пн
пн100:00−37св228856 0.0 102419
03:00−37ссв228938 0.0 102519
06:00−38ссв228924 0.0 102519
09:00−38ссв119212 0.0 102519
12:00−35с119137 0.0 102557
15:00−35с119260 0.0 102519
18:00−39ссв119892 0.0 102619
21:00−40в0010083 0.0 102719
2 марта, вт
вт200:00−40всв0010069 0.0 102718
03:00−40св0010061 0.0 102718
06:00−40ссв1110030 0.0 102818
09:00−39ссв119653 0.0 102818
12:00−35с119178 0.0 102865
15:00−34с119175 0.0 102819
18:00−37с229154 0.0 102919
21:00−37с229069 0.0 102919
3 марта, ср
ср300:00−37с229276 0.0 102919
03:00−38ссв229148 0.0 102919
06:00−38с239026 0.0 102920
09:00−38ссв238913 0.0 102823
12:00−34ссв33890 0.0 1027115
15:00−33ссв34902 0.0 102698
18:00−37ссв348864 0.0 102630
21:00−36ссв559264 0.0 102564